Regional Weather Roundup
Issued by NWS Mobile, AL

Home | Current Version | Previous Version | Text Only | Print | Product List | Glossary On
Versions: 1 2 3 4 5 6 7 8 9 10 11 12 13 14 15 16 17 18 19 20 21 22 23 24 25 26 27 28 29 30 31 32 33 34 35 36 37 38 39 40 41 42 43 44 45 46 47 48 49 50
419
ASUS44 KMOB 261113
RWRMOB
REGIONAL WEATHER ROUNDUP
NATIONAL WEATHER SERVICE MOBILE AL
600 AM CDT TUE SEP 26 2017

NOTE: "FAIR" INDICATES FEW OR NO CLOUDS BELOW 12,000 FEET WITH NO
      SIGNIFICANT WEATHER AND/OR OBSTRUCTIONS TO VISIBILITY.

  * THESE STATIONS ARE PART OF THE UNIVERSITY OF SOUTH ALABAMA
    MESONET AND ARE NOT UNDER NWS OR FAA QUALITY CONTROL.

ALZ061>064-261200-
COASTAL ALABAMA

CITY           SKY/WX    TMP DP  RH WIND       PRES   REMARKS
MOBILE REG APT PTCLDY    71  69  93 CALM      29.93R
BROOKLEY FIELD CLEAR     73  72  96 NW5       29.93R
USA CAMPUS*    NOT AVBL
DOG RIVER*     NOT AVBL


CITY           SKY/WX    TMP DP  RH WIND       PRES   REMARKS
GULF SHORES    CLEAR     71  71 100 NE7       29.91R

$$

ALZ051>060-261200-
INTERIOR SOUTHWEST AND SOUTH CENTRAL ALABAMA

CITY           SKY/WX    TMP DP  RH WIND       PRES   REMARKS
GREENVILLE     CLEAR     67  63  87 CALM      29.94R
EVERGREEN      MOCLDY    67  66  97 CALM      29.94R
ATMORE*          N/A    N/A N/A N/A CALM      31.76
ANDALUSIA/OPP  CLEAR     71  65  81 CALM      29.94R
ANDALUSIA*       N/A     70  66  88 E3        29.94R
FLORALA APT    NOT AVBL
FLORALA*         N/A     68  68 100 CALM      30.60R

$$

FLZ001>006-261200-
WESTERN FLORIDA PANHANDLE

CITY           SKY/WX    TMP DP  RH WIND       PRES   REMARKS
PENSACOLA      CLEAR     76  72  87 N5        29.92R
NAS PENSACOLA  PTCLDY    72  70  93 N3        29.91R
MILTON         PTCLDY    70  69  97 CALM      29.93R
WHTNG S FIELD  CLEAR     71  69  93 CALM      29.93R


CITY           SKY/WX    TMP DP  RH WIND       PRES   REMARKS
JAY*             N/A     70  70 100 CALM      29.94R
DUKE FIELD     CLEAR     69  68  96 CALM      29.92R
CRESTVIEW      CLEAR     68  67  96 CALM      29.93R FOG
VALPARAISO     PTCLDY    72  69  93 N3        29.90S
DESTIN         CLEAR     78  73  84 CALM      29.91R

$$

MSZ076-079-261200-
INTERIOR SOUTHEAST MISSISSIPPI

CITY           SKY/WX    TMP DP  RH WIND       PRES   REMARKS
LEAKESVILLE*     N/A     68  68 100 E2        29.94R
AGRICOLA*        N/A     70  70 100 CALM      29.92R

$$

MARINE OBSERVATIONS

STATION/POSITION TIME  TEMP    WIND        PRES    WAVE
                       AIR SEA DIR/SP/G            HT/PER
                 (UTC) (F)     (DEG/KT/KT) (MB)    (FT/S)
PASCAGOULA       1048   74      60/  6/  7 1012.4R
PETIT BOIS ISLND 1048   78     110/  4/  5 1013.2R
GRAND BAY        0930   74      30/  4     1013.0S
KATRINA CUT      1030   79      70/  7     1012.5R
CEDAR POINT      1030   78      60/  6     1012.5R
E DAUPHIN ISLAND 1000   78      60/  6/  7 1012.0S
MIDDLE BAY LIGHT 1030   77      50/  8     1012.9R
USCG MOBILE BAY  1048   73 83  320/  3/  4 1012.9R
STATE DOCKS      1048   74 82              1012.9R
MEAHER PARK      1030   74      30/  3     1012.9S
WEEKS BAY        0945   72                 1012.0S
FORT MORGAN      1048   78      70/  8/  9   N/A
12 S ORANGE BCH  1050   80 82  120/  4/  4 1012.3R   1/ 5
PENSACOLA BAY    1048   76 81              1013.1R
64 S DAUPHIN ISL 1100   82 83  180/  6/  8 1012.2
67 S FORT MORGAN 1030   81     180/  8     1011.9R

$$

SELECTED LOCATIONS ACROSS THE REGION

CITY           SKY/WX    TMP DP  RH WIND       PRES   REMARKS
NEW ORLEANS    PTCLDY    76  74  93 CALM      29.89R
GULFPORT       CLEAR     72  71  97 CALM      29.90R
PASCAGOULA AP  PTCLDY    71  69  93 CALM      29.91R FOG
PASCAGOULA*      N/A    N/A N/A N/A CALM        N/A
HATTIESBURG    CLEAR     68  68 100 CALM      29.94R
LAUREL         CLEAR     68  67  96 N3        29.94R
MERIDIAN       PTCLDY    69  69 100 CALM      29.95R
JACKSON        PTCLDY    68  67  96 N3        29.94R
MONTGOMERY     CLEAR     70  65  84 CALM      29.95R
TROY           CLEAR     64  64 100 CALM      29.95R
ASHFORD*         N/A     70  66  88 E3        29.94R
DOTHAN         CLEAR     65  65 100 CALM      29.97R
PANAMA CITY    CLEAR     72  70  93 CALM      29.90R

$$





USA.gov is the U.S. government's official web portal to all federal, state and local government web resources and services.